Regional Weather Roundup
Issued by NWS Jackson, KY

Home | Current Version | Previous Version | Text Only | Print | Product List | Glossary Off
Versions: 1 2 3 4 5 6 7 8 9 10 11 12 13 14 15 16 17 18 19 20 21 22 23 24 25 26 27 28 29 30 31 32 33 34 35 36 37 38 39 40 41 42 43 44 45 46 47 48 49 50

000
ASUS43 KJKL 060810
RWRJKL

EAST KENTUCKY HOURLY WEATHER ROUNDUP
NATIONAL WEATHER SERVICE JACKSON KY
300 AM EST FRI MAR 06 2015

NOTE: "FAIR" INDICATES FEW OR NO CLOUDS BELOW 12,000 FEET WITH
NO SIGNIFICANT WEATHER AND/OR OBSTRUCTIONS TO VISIBILITY.

* THESE REPORTS ARE NOT UNDER NWS QUALITY CONTROL AND MAY NOT
  REPORT WEATHER SUCH AS PRECIPITATION AND FOG.

KYZ079-080-083-085-087-088-110-112-115-119-120-060900
...EASTERN KENTUCKY...

CITY           SKY/WX    TMP DP  RH WIND       PRES   REMARKS
JACKSON        MOCLDY    11   6  81 CALM      30.46S
LONDON         PTCLDY     6   0  76 N3        30.48S
SOMERSET*      PTCLDY     3   1  92 CALM      30.53S
MONTICELLO*    SNOW      -6 -10  83 CALM      30.54S VSB<1/4
MIDDLESBORO*   PTCLDY    16  10  79 CALM      30.47F
BLACK MTN*       N/A      1   0  92 N3          N/A
PIKEVILLE APT* CLEAR     10   9  92 CALM      30.45S
BIG SANDY*     MOSUNNY    9   7  91 N5        30.47F WCI   1
MOREHEAD APT*  FLURRIES   9   3  78 CALM      30.54R
$$

KYZ035-036-041-042-044-050-067-078-099-060900
...CENTRAL KENTUCKY...

CITY           SKY/WX    TMP DP  RH WIND       PRES   REMARKS
MT STERLING*   MOCLDY    -6  -8  92 CALM      30.54R
FLEMING/MASON* CLEAR      1   0  92 CALM      30.54R FOG
DANVILLE*      PTCLDY     0  -4  85 CALM      30.52F
RICHMOND*      CLOUDY     3   0  85 CALM      30.51S VSB<1/4
LEXINGTON      PTCLDY     2  -1  88 NE5       30.52S WCI  -8
FRANKFORT      PTCLDY    -5 -10  79 CALM      30.53F
$$

KYZ091>093-OHZ055-061-077-WVZ005-015-034-035-042-060900
...SOUTHERN OHIO/WEST VIRGINIA...

CITY           SKY/WX    TMP DP  RH WIND       PRES   REMARKS
COVINGTON      PTCLDY     4   1  88 CALM      30.53S
COLUMBUS       CLEAR      6   2  83 CALM      30.53S
DAYTON         PTCLDY    10   5  80 W6        30.52S WCI   0
WILMINGTON       N/A      2  -2  83 CALM      30.50F
HUNTINGTON     FOG        6   3  87 E5        30.52F VSB 1/4 WCI  -3
CHARLESTON     MOCLDY    12   7  80 CALM      30.51R
PINEVILLE*     FLURRIES   6   5  94 MISG      30.47R
BECKLEY        PTCLDY     6   2  83 N6        30.34R FOG     WCI  -4
BLUEFIELD      LGT SNOW  12   5  73 NW6       30.31S WCI   3
$$

VAZ002-007-008-TNZ017-027-036-066-071-060900
...SOUTHWEST VIRGINIA/EAST TENNESSEE...

CITY           SKY/WX    TMP DP  RH WIND       PRES   REMARKS
WISE*          FLURRIES  12   9  85 N6        30.34S WCI   3
JONESVILLE*    MOSUNNY   10   9  92 E3        30.46S
ABINGDON*      FLURRIES  18  13  82 N3        30.37S
BRISTOL        CLOUDY    18  12  77 N7        30.42S WCI   9
KNOXVILLE      CLOUDY    21  15  78 N9        30.45R WCI  11
OAK RIDGE      CLOUDY    20  11  68 VRB3      30.48R
CROSSVILLE     MOCLDY    14   9  80 NE7       30.41R WCI   4
NASHVILLE      PTCLDY    13   6  74 N3        30.55S
$$

...KEY TO REMARKS...
VSB - VISIBILITY IN MILES
WCI - WIND CHILL INDEX
HX  - HEAT INDEX

$$


USA.gov is the U.S. government's official web portal to all federal, state and local government web resources and services.